QPF
0.00 0.00 0.00 0.00 0.00 0.00 0.00 0.00 0.00 0.00 0.00 0.00 0.00 0.00 0.00 0.00 0.00 0.00 0.00 0.00 0.00 0.00 0.00 0.00 0.00 0.00 0.00 0.00 0.00 0.00 0.00 0.00 0.00 0.00 0.00 0.00 0.00 0.00 0.00 0.00 0.00 0.00 0.00 0.00 0.00 0.00 0.00 0.00 0.00
0.00 0.00 0.00 0.00 0.00 0.00 0.00 0.00 0.00 0.00 0.00 0.00 0.00 0.00 0.00 0.00 0.00 0.00 0.00 0.00 0.00 0.00 0.00 0.00 0.00 0.00 0.00 0.00 0.00 0.00 0.00 0.00 0.00 0.00 0.00 0.00 0.00 0.00 0.00 0.00 0.00 0.00 0.00 0.00 0.00 0.00 0.00 0.00 0.00
0.00 0.00 0.00 0.00 0.00 0.00 0.00 0.00 0.00 0.00 0.00 0.00 0.00 0.00 0.00 0.00 0.00 0.00 0.00 0.00 0.00 0.00 0.00 0.00 0.00 0.00 0.00 0.00 0.00 0.00 0.00 0.00 0.00 0.00 0.00 0.00 0.00 0.00 0.00 0.01 0.00 0.00 0.00 0.00 0.00 0.00 0.00 0.00 0.00
0.00 0.00 0.00 0.00 0.00 0.00 0.00 0.00 0.00 0.00 0.00 0.00 0.00 0.00 0.00 0.00 0.00 0.00 0.00 0.00 0.00 0.00 0.00 0.00 0.00 0.00 0.00 0.00 0.00 0.00 0.00 0.00 0.00 0.00 0.00 0.00 0.00 0.00 0.00 0.01 0.00 0.00 0.00 0.00 0.00 0.00 0.00 0.00 0.00
0.00 0.00 0.00 0.00 0.00 0.00 0.00 0.00 0.00 0.00 0.00 0.00 0.00 0.00 0.00 0.00 0.00 0.00 0.00 0.00 0.00 0.00 0.00 0.00 0.00 0.00 0.00 0.00 0.00 0.00 0.00 0.00 0.00 0.00 0.00 0.00 0.00 0.00 0.00 0.00 0.00 0.00 0.00 0.00 0.00 0.00 0.00 0.00 0.00
0.00 0.00 0.00 0.00 0.00 0.00 0.00 0.00 0.00 0.00 0.00 0.00 0.00 0.00 0.00 0.00 0.00 0.00 0.00 0.00 0.00 0.00 0.00 0.00 0.00 0.00 0.00 0.00 0.00 0.00 0.00 0.00 0.00 0.00 0.00 0.00 0.00 0.00 0.00 0.00 0.00 0.00 0.00 0.00 0.00 0.00 0.00 0.00 0.00
0.00 0.00 0.00 0.00 0.00 0.00 0.00 0.00 0.00 0.00 0.00 0.00 0.00 0.00 0.00 0.00 0.00 0.00 0.00 0.00 0.00 0.00 0.00 0.00 0.00 0.00 0.00 0.00 0.00 0.00 0.00 0.00 0.00 0.00 0.00 0.00 0.00 0.00 0.00 0.00 0.00 0.00 0.00 0.00 0.00 0.00 0.00 0.00 0.00
0.00 0.00 0.00 0.00 0.00 0.00 0.00 0.00 0.00 0.00 0.00 0.00 0.00 0.00 0.00 0.00 0.00 0.00 0.00 0.00 0.00 0.00 0.00 0.00 0.00 0.00 0.00 0.00 0.00 0.00 0.00 0.00 0.00 0.00 0.00 0.00 0.00 0.00 0.00 0.00 0.00 0.00 0.00 0.00 0.00 0.00 0.00 0.00 0.00
0.00 0.00 0.00 0.00 0.00 0.00 0.00 0.00 0.00 0.00 0.00 0.00 0.00 0.00 0.00 0.00 0.00 0.00 0.00 0.00 0.00 0.00 0.00 0.00 0.00 0.00 0.00 0.00 0.00 0.00 0.00 0.00 0.00 0.00 0.00 0.00 0.00 0.00 0.00 0.00 0.00 0.00 0.00 0.00 0.00 0.00 0.00 0.00 0.00
0.00 0.00 0.00 0.00 0.00 0.00 0.00 0.00 0.00 0.00 0.00 0.00 0.00 0.00 0.00 0.00 0.00 0.00 0.00 0.00 0.00 0.00 0.00 0.00 0.00 0.00 0.00 0.00 0.00 0.00 0.00 0.00 0.00 0.00 0.00 0.00 0.00 0.00 0.00 0.00 0.00 0.00 0.00 0.00 0.00 0.00 0.00 0.00 0.00
0.00 0.00 0.00 0.00 0.00 0.00 0.00 0.00 0.00 0.00 0.00 0.00 0.00 0.00 0.00 0.00 0.00 0.00 0.00 0.00 0.00 0.00 0.00 0.00 0.00 0.00 0.00 0.00 0.00 0.00 0.00 0.00 0.00 0.00 0.00 0.00 0.00 0.00 0.00 0.00 0.00 0.00 0.00 0.00 0.00 0.00 0.00 0.00 0.00
0.00 0.00 0.00 0.00 0.00 0.00 0.00 0.00 0.00 0.00 0.00 0.00 0.00 0.00 0.00 0.00 0.00 0.00 0.00 0.00 0.00 0.00 0.00 0.00 0.00 0.00 0.00 0.00 0.00 0.00 0.00 0.00 0.00 0.00 0.00 0.00 0.00 0.00 0.00 0.00 0.00 0.00 0.00 0.00 0.00 0.00 0.00 0.00 0.00
0.00 0.00 0.00 0.00 0.00 0.00 0.00 0.00 0.00 0.00 0.00 0.00 0.00 0.00 0.00 0.00 0.00 0.00 0.00 0.00 0.00 0.00 0.00 0.00 0.00 0.00 0.00 0.00 0.00 0.00 0.00 0.00 0.00 0.00 0.00 0.00 0.00 0.00 0.00 0.00 0.00 0.00 0.00 0.00 0.00 0.00 0.00 0.00 0.00
0.00 0.00 0.00 0.00 0.00 0.00 0.00 0.00 0.00 0.00 0.00 0.00 0.00 0.00 0.00 0.00 0.00 0.00 0.00 0.00 0.00 0.00 0.00 0.00 0.00 0.00 0.00 0.00 0.00 0.00 0.00 0.00 0.00 0.00 0.00 0.00 0.00 0.00 0.00 0.00 0.00 0.00 0.00 0.00 0.00 0.00 0.00 0.00 0.00
0.00 0.00 0.00 0.00 0.00 0.00 0.00 0.00 0.00 0.00 0.00 0.00 0.00 0.00 0.00 0.00 0.00 0.00 0.00 0.00 0.00 0.00 0.00 0.00 0.00 0.00 0.00 0.00 0.00 0.00 0.00 0.00 0.00 0.00 0.00 0.00 0.00 0.00 0.00 0.00 0.00 0.00 0.00 0.00 0.00 0.00 0.00 0.00 0.00
0.00 0.00 0.00 0.00 0.00 0.00 0.00 0.00 0.00 0.00 0.00 0.00 0.00 0.00 0.00 0.00 0.00 0.00 0.00 0.00 0.00 0.00 0.00 0.00 0.00 0.00 0.00 0.00 0.00 0.00 0.00 0.00 0.00 0.00 0.00 0.00 0.00 0.00 0.00 0.00 0.00 0.00 0.00 0.00 0.00 0.00 0.00 0.00 0.00
0.00 0.00 0.00 0.00 0.00 0.00 0.00 0.00 0.00 0.00 0.00 0.00 0.00 0.00 0.00 0.00 0.00 0.00 0.00 0.00 0.00 0.00 0.00 0.00 0.00 0.00 0.00 0.00 0.00 0.00 0.00 0.00 0.00 0.00 0.00 0.00 0.00 0.00 0.00 0.00 0.00 0.00 0.00 0.00 0.00 0.00 0.00 0.00 0.01
0.00 0.00 0.00 0.00 0.00 0.00 0.00 0.00 0.00 0.00 0.00 0.00 0.00 0.00 0.00 0.00 0.00 0.00 0.00 0.00 0.00 0.00 0.00 0.00 0.00 0.00 0.00 0.00 0.00 0.00 0.00 0.00 0.00 0.00 0.00 0.00 0.00 0.00 0.00 0.00 0.00 0.00 0.00 0.00 0.00 0.00 0.01 0.00 0.02
0.00 0.00 0.00 0.00 0.00 0.00 0.00 0.00 0.00 0.00 0.00 0.00 0.00 0.00 0.00 0.00 0.00 0.00 0.00 0.00 0.00 0.00 0.00 0.00 0.00 0.00 0.00 0.00 0.00 0.00 0.00 0.00 0.00 0.00 0.00 0.00 0.00 0.00 0.00 0.00 0.00 0.00 0.00 0.00 0.00 0.00 0.00 0.00 0.04
0.00 0.00 0.00 0.00 0.00 0.00 0.00 0.00 0.00 0.00 0.00 0.00 0.00 0.00 0.00 0.00 0.00 0.00 0.00 0.00 0.00 0.00 0.00 0.00 0.00 0.00 0.00 0.00 0.00 0.00 0.00 0.00 0.00 0.00 0.00 0.00 0.00 0.00 0.00 0.00 0.00 0.00 0.00 0.00 0.00 0.02 0.01 0.00 0.06
0.00 0.00 0.00 0.00 0.00 0.00 0.00 0.00 0.00 0.00 0.00 0.00 0.00 0.00 0.00 0.00 0.00 0.00 0.00 0.00 0.00 0.00 0.00 0.00 0.00 0.00 0.00 0.00 0.00 0.00 0.00 0.00 0.00 0.00 0.00 0.00 0.00 0.00 0.01 0.02 0.02 0.01 0.00 0.00 0.00 0.01 0.00 0.00 0.01
0.00 0.00 0.00 0.00 0.00 0.00 0.00 0.00 0.00 0.00 0.00 0.00 0.00 0.00 0.00 0.00 0.00 0.00 0.00 0.00 0.00 0.00 0.00 0.00 0.00 0.00 0.00 0.00 0.00 0.00 0.01 0.02 0.03 0.00 0.00 0.00 0.00 0.00 0.00 0.00 0.00 0.00 0.00 0.00 0.00 0.02 0.06 0.04 0.00
0.00 0.00 0.00 0.00 0.00 0.00 0.00 0.00 0.00 0.00 0.00 0.00 0.00 0.00 0.00 0.00 0.00 0.00 0.00 0.00 0.00 0.00 0.00 0.00 0.00 0.00 0.00 0.00 0.01 0.01 0.05 0.09 0.02 0.02 0.02 0.03 0.02 0.00 0.00 0.00 0.00 0.00 0.02 0.03 0.05 0.03 0.01 0.02 0.01
0.00 0.00 0.00 0.00 0.00 0.00 0.00 0.00 0.00 0.00 0.00 0.00 0.00 0.00 0.00 0.00 0.00 0.00 0.00 0.00 0.00 0.00 0.00 0.00 0.00 0.00 0.02 0.02 0.05 0.05 0.04 0.02 0.03 0.01 0.01 0.02 0.03 0.04 0.02 0.01 0.03 0.05 0.05 0.04 0.01 0.00 0.00 0.00 0.00
0.00 0.00 0.00 0.00 0.00 0.00 0.00 0.00 0.00 0.00 0.00 0.00 0.00 0.00 0.00 0.00 0.00 0.00 0.00 0.00 0.00 0.00 0.00 0.00 0.01 0.00 0.02 0.05 0.06 0.03 0.03 0.02 0.00 0.01 0.00 0.00 0.02 0.03 0.03 0.02 0.02 0.03 0.02 0.01 0.00 0.00 0.00 0.00 0.00
0.00 0.00 0.00 0.00 0.00 0.00 0.00 0.00 0.00 0.00 0.00 0.00 0.00 0.00 0.00 0.00 0.00 0.00 0.00 0.00 0.00 0.01 0.06 0.05 0.08 0.05 0.00 0.01 0.01 0.00 0.00 0.00 0.00 0.00 0.00 0.00 0.00 0.00 0.00 0.00 0.00 0.00 0.00 0.00 0.00 0.00 0.00 0.00 0.00
0.00 0.00 0.00 0.00 0.00 0.00 0.00 0.00 0.00 0.00 0.00 0.00 0.00 0.00 0.00 0.01 0.03 0.04 0.03 0.00 0.02 0.04 0.05 0.01 0.01 0.00 0.00 0.00 0.00 0.00 0.00 0.00 0.00 0.00 0.00 0.00 0.00 0.00 0.00 0.00 0.00 0.00 0.00 0.00 0.00 0.00 0.00 0.00 0.00
0.00 0.00 0.00 0.00 0.00 0.00 0.00 0.00 0.00 0.02 0.03 0.06 0.09 0.08 0.11 0.09 0.05 0.01 0.00 0.00 0.00 0.00 0.00 0.00 0.00 0.00 0.00 0.00 0.00 0.00 0.00 0.00 0.00 0.00 0.00 0.00 0.00 0.00 0.00 0.00 0.00 0.00 0.00 0.00 0.00 0.00 0.00 0.00 0.00
0.00 0.00 0.00 0.00 0.00 0.00 0.00 0.00 0.03 0.05 0.07 0.15 0.19 0.15 0.11 0.04 0.00 0.00 0.00 0.00 0.00 0.00 0.00 0.00 0.00 0.00 0.00 0.00 0.00 0.00 0.00 0.00 0.00 0.00 0.00 0.00 0.00 0.00 0.00 0.00 0.00 0.00 0.00 0.00 0.00 0.00 0.00 0.00 0.00
0.00 0.00 0.00 0.00 0.00 0.00 0.00 0.00 0.01 0.09 0.05 0.06 0.05 0.05 0.07 0.02 0.00 0.00 0.00 0.00 0.00 0.00 0.00 0.00 0.00 0.00 0.00 0.00 0.00 0.00 0.00 0.00 0.00 0.00 0.00 0.00 0.00 0.00 0.00 0.00 0.00 0.00 0.00 0.00 0.00 0.00 0.00 0.00 0.00
MSLP
1009.74 1009.52 1009.42 1009.81 1010.43 1010.12 1008.92 1007.79 1006.35 1006.29 1006.62 1006.84 1006.76 1007.35 1008.50 1009.25 1010.25 1012.28 1012.37 1013.22 1013.87 1014.41 1014.81 1015.08 1015.29 1015.44 1015.68 1015.75 1015.91 1016.06 1016.04 1016.05 1016.26 1016.37 1016.54 1016.64 1016.70 1016.83 1016.90 1017.00 1017.02 1017.10 1017.13 1017.15 1017.13 1017.22 1017.24 1017.24 1017.31
1009.44 1009.70 1009.83 1009.91 1010.36 1010.41 1008.86 1007.12 1006.20 1006.28 1006.65 1006.83 1007.15 1007.67 1008.35 1010.07 1010.81 1012.24 1013.09 1013.80 1013.90 1014.18 1014.91 1015.09 1015.35 1015.61 1015.66 1015.81 1016.03 1016.12 1016.22 1016.25 1016.46 1016.53 1016.71 1016.87 1017.01 1017.02 1017.10 1017.14 1017.21 1017.30 1017.31 1017.33 1017.32 1017.32 1017.35 1017.29 1017.38
1009.17 1009.11 1009.96 1010.11 1010.74 1010.13 1008.57 1007.19 1006.29 1006.48 1006.22 1006.18 1007.33 1007.85 1008.86 1010.72 1011.58 1012.23 1012.94 1013.88 1014.32 1014.59 1014.86 1015.09 1015.39 1015.61 1015.71 1015.92 1016.24 1016.27 1016.41 1016.47 1016.65 1016.71 1016.85 1017.02 1017.20 1017.25 1017.22 1017.29 1017.38 1017.48 1017.49 1017.51 1017.50 1017.47 1017.37 1017.27 1017.36
1009.04 1009.60 1010.24 1010.25 1010.43 1009.27 1007.94 1006.91 1006.20 1006.49 1006.96 1006.96 1007.42 1008.53 1009.35 1009.84 1010.89 1011.90 1013.41 1013.91 1014.49 1014.71 1014.82 1015.06 1015.37 1015.62 1015.86 1016.16 1016.33 1016.42 1016.55 1016.73 1016.84 1016.93 1017.07 1017.15 1017.27 1017.41 1017.43 1017.48 1017.63 1017.69 1017.71 1017.66 1017.62 1017.51 1017.39 1017.25 1017.31
1009.25 1009.80 1010.51 1010.50 1009.89 1008.89 1007.29 1006.72 1006.02 1006.11 1006.49 1006.99 1007.14 1009.15 1010.09 1010.89 1011.10 1012.37 1013.49 1014.15 1014.22 1014.85 1015.08 1015.34 1015.58 1015.83 1016.06 1016.25 1016.45 1016.60 1016.76 1016.92 1017.04 1017.08 1017.15 1017.26 1017.35 1017.46 1017.50 1017.55 1017.65 1017.75 1017.79 1017.73 1017.61 1017.54 1017.42 1017.30 1017.22
1009.94 1010.50 1011.07 1010.56 1009.48 1007.92 1007.06 1006.00 1005.79 1006.20 1006.80 1007.50 1008.26 1009.10 1011.01 1011.47 1011.57 1012.83 1013.51 1014.23 1014.19 1014.86 1015.20 1015.39 1015.64 1015.83 1016.14 1016.28 1016.50 1016.69 1016.80 1016.95 1017.07 1017.18 1017.25 1017.32 1017.37 1017.45 1017.54 1017.58 1017.68 1017.76 1017.79 1017.79 1017.66 1017.49 1017.36 1017.34 1017.29
1010.08 1010.89 1010.98 1010.50 1009.36 1008.56 1006.88 1005.34 1005.49 1006.06 1006.82 1007.53 1008.00 1009.51 1011.40 1011.89 1011.90 1012.65 1013.42 1013.99 1014.43 1014.87 1015.21 1015.48 1015.72 1015.92 1016.25 1016.45 1016.66 1016.81 1016.84 1016.90 1017.01 1017.16 1017.29 1017.36 1017.41 1017.52 1017.60 1017.66 1017.71 1017.76 1017.78 1017.74 1017.56 1017.44 1017.48 1017.49 1017.38
1009.63 1010.51 1010.76 1009.82 1009.34 1008.34 1006.88 1006.06 1005.49 1005.56 1006.73 1007.48 1008.04 1009.17 1010.67 1011.15 1011.91 1012.75 1013.49 1014.22 1014.75 1015.11 1015.26 1015.56 1015.83 1016.00 1016.30 1016.50 1016.56 1016.69 1016.79 1016.89 1016.99 1017.14 1017.25 1017.35 1017.41 1017.50 1017.54 1017.62 1017.67 1017.70 1017.74 1017.68 1017.52 1017.38 1017.49 1017.46 1017.36
1008.85 1010.10 1010.35 1009.87 1009.21 1007.86 1006.19 1006.47 1005.92 1005.76 1006.68 1007.37 1007.82 1008.28 1009.50 1010.61 1011.84 1012.91 1013.98 1014.79 1015.14 1015.36 1015.25 1015.42 1015.79 1016.03 1016.27 1016.43 1016.46 1016.51 1016.63 1016.83 1016.96 1017.06 1017.13 1017.23 1017.48 1017.58 1017.66 1017.68 1017.66 1017.65 1017.61 1017.67 1017.59 1017.36 1017.37 1017.29 1017.18
1009.19 1009.80 1009.26 1007.98 1007.64 1007.00 1006.04 1006.51 1006.09 1006.42 1007.09 1007.90 1008.18 1008.97 1009.72 1010.55 1011.71 1012.61 1013.52 1014.31 1014.83 1015.02 1015.21 1015.17 1015.30 1015.66 1016.01 1016.01 1016.27 1016.45 1016.59 1016.71 1016.85 1016.96 1017.07 1017.20 1017.36 1017.47 1017.49 1017.59 1017.58 1017.52 1017.53 1017.51 1017.49 1017.34 1017.21 1017.08 1017.08
1008.90 1008.78 1007.48 1006.85 1006.24 1006.01 1005.63 1005.94 1006.03 1006.31 1007.69 1007.57 1008.17 1008.95 1009.74 1010.39 1011.50 1012.22 1012.84 1013.08 1013.51 1013.89 1014.46 1014.70 1014.92 1015.06 1015.47 1015.54 1016.08 1016.35 1016.45 1016.59 1016.66 1016.71 1016.84 1016.90 1017.08 1017.23 1017.29 1017.46 1017.45 1017.51 1017.50 1017.49 1017.43 1017.35 1017.23 1017.16 1017.01
1008.38 1008.00 1006.90 1005.71 1004.99 1005.23 1005.05 1005.41 1006.10 1006.07 1006.61 1007.37 1007.94 1008.40 1009.35 1010.26 1010.96 1011.63 1012.21 1012.68 1013.18 1013.52 1013.52 1013.96 1014.39 1014.75 1014.96 1015.33 1015.76 1015.89 1016.09 1016.36 1016.51 1016.39 1016.55 1016.84 1016.99 1017.09 1017.14 1017.20 1017.38 1017.31 1017.25 1017.26 1017.25 1017.35 1017.29 1017.23 1017.05
1007.83 1007.34 1007.19 1006.14 1005.35 1004.81 1004.10 1005.06 1005.64 1006.29 1006.64 1007.42 1008.07 1008.59 1009.06 1009.78 1010.20 1010.67 1011.01 1011.55 1012.22 1012.82 1013.07 1013.35 1013.92 1014.24 1014.44 1014.91 1015.32 1015.59 1015.81 1015.87 1015.97 1016.09 1016.06 1016.31 1016.64 1016.72 1016.76 1016.86 1017.12 1017.05 1016.91 1016.94 1016.96 1017.02 1016.98 1016.83 1016.59
1007.50 1007.14 1006.32 1005.74 1005.34 1004.48 1004.36 1005.33 1005.57 1006.96 1006.88 1007.31 1007.87 1008.47 1008.93 1009.19 1009.62 1010.08 1010.70 1011.27 1011.72 1012.01 1012.43 1012.66 1013.33 1013.64 1013.91 1014.27 1014.74 1015.06 1015.35 1015.35 1015.60 1015.71 1015.66 1015.73 1015.96 1016.12 1016.28 1016.51 1016.60 1016.67 1016.51 1016.32 1016.51 1016.44 1016.39 1016.29 1016.03
1007.71 1007.42 1006.44 1005.52 1005.10 1004.34 1004.49 1005.90 1006.10 1006.41 1006.90 1007.22 1007.73 1008.16 1008.67 1008.93 1009.19 1009.51 1009.83 1010.35 1010.92 1011.34 1011.66 1012.27 1012.77 1013.21 1013.70 1013.89 1014.18 1014.57 1014.76 1014.97 1015.21 1015.18 1015.14 1015.27 1015.36 1015.55 1015.62 1015.84 1016.17 1016.00 1015.92 1016.05 1016.13 1015.92 1015.86 1016.07 1015.87
1008.31 1008.19 1007.80 1005.74 1005.33 1004.47 1004.47 1005.85 1006.06 1006.05 1006.47 1007.01 1007.40 1007.72 1008.20 1008.50 1008.71 1008.95 1009.23 1009.61 1010.26 1010.84 1011.45 1011.87 1012.35 1012.84 1013.25 1013.66 1013.79 1014.22 1014.36 1014.55 1014.75 1014.93 1014.75 1014.79 1014.89 1014.95 1015.15 1015.35 1015.30 1015.00 1015.08 1015.27 1015.57 1015.80 1015.87 1015.81 1015.35
1009.41 1008.89 1008.26 1006.82 1005.25 1005.10 1005.12 1005.42 1005.52 1005.79 1006.03 1006.47 1006.71 1007.13 1007.61 1008.21 1008.53 1008.67 1008.85 1009.33 1009.94 1010.42 1011.14 1011.74 1011.99 1012.47 1012.93 1013.40 1013.57 1013.67 1013.83 1014.24 1014.43 1014.40 1014.56 1014.60 1014.65 1014.61 1014.77 1014.80 1014.68 1014.69 1014.86 1015.10 1015.32 1015.38 1015.60 1015.54 1015.41
1009.84 1009.21 1008.23 1007.31 1005.62 1005.30 1005.42 1005.28 1005.17 1005.40 1005.60 1005.81 1006.14 1006.73 1007.20 1007.68 1007.97 1008.28 1008.67 1009.22 1009.80 1010.39 1010.87 1011.39 1011.92 1012.32 1012.81 1013.31 1013.79 1014.08 1014.16 1014.23 1014.26 1014.33 1014.38 1014.36 1014.31 1014.27 1014.58 1014.58 1014.44 1014.44 1014.79 1014.87 1014.93 1015.13 1015.22 1015.43 1015.39
1009.42 1009.14 1008.59 1007.12 1005.93 1006.09 1005.52 1005.29 1004.87 1005.12 1005.46 1005.67 1006.10 1006.49 1006.95 1007.18 1007.43 1008.07 1008.55 1009.10 1009.93 1010.71 1011.33 1011.73 1012.22 1012.59 1013.10 1013.76 1014.25 1014.59 1014.55 1014.42 1014.34 1014.09 1013.93 1013.90 1013.90 1013.90 1014.04 1014.11 1014.30 1014.30 1014.68 1014.61 1014.66 1014.84 1015.14 1015.35 1015.33
1009.27 1009.03 1008.00 1006.97 1006.06 1006.42 1005.27 1005.23 1004.71 1004.81 1004.83 1004.81 1005.54 1006.32 1006.57 1007.36 1007.74 1008.18 1008.56 1009.24 1009.93 1010.54 1011.12 1011.71 1012.07 1012.50 1012.87 1013.20 1013.66 1013.95 1014.25 1014.22 1014.04 1013.85 1013.67 1013.42 1013.27 1013.31 1013.52 1013.80 1013.89 1014.06 1014.25 1014.38 1014.56 1014.94 1015.19 1015.20 1015.21
1008.77 1008.66 1007.74 1007.39 1006.03 1005.65 1005.24 1005.10 1004.82 1004.75 1004.84 1005.33 1005.65 1005.82 1006.54 1006.90 1007.68 1008.37 1008.91 1009.29 1009.88 1010.30 1010.61 1010.99 1011.35 1011.78 1012.19 1012.64 1013.32 1013.91 1014.18 1014.29 1014.21 1013.94 1013.73 1013.52 1013.13 1012.80 1012.95 1013.05 1013.46 1013.70 1014.17 1014.24 1014.43 1014.61 1014.81 1015.10 1015.15
1008.09 1007.31 1007.10 1007.04 1007.05 1006.36 1005.89 1005.89 1005.18 1004.95 1005.10 1005.74 1006.08 1006.22 1006.56 1007.08 1007.87 1008.80 1009.49 1009.89 1010.06 1010.04 1010.39 1010.70 1011.30 1011.95 1012.43 1012.87 1013.33 1013.78 1014.08 1014.37 1014.22 1014.11 1014.03 1013.96 1013.39 1012.78 1012.46 1012.74 1012.93 1013.42 1013.77 1014.28 1014.45 1014.93 1014.95 1015.04 1015.24
1007.08 1006.52 1006.76 1006.74 1007.00 1006.82 1006.22 1006.76 1005.42 1005.51 1006.01 1006.70 1006.83 1007.04 1007.22 1008.00 1008.64 1009.73 1010.26 1010.33 1010.29 1010.29 1011.02 1011.49 1011.79 1012.15 1012.57 1013.01 1013.20 1013.67 1014.05 1014.37 1014.15 1014.30 1014.41 1014.35 1013.94 1013.73 1013.30 1013.33 1013.80 1013.99 1014.39 1014.65 1014.80 1014.92 1014.89 1015.21 1015.30
1006.09 1006.44 1006.62 1007.02 1007.34 1007.54 1006.67 1007.11 1006.26 1006.25 1006.16 1007.31 1007.62 1008.11 1008.53 1009.28 1009.88 1010.60 1011.24 1011.27 1011.36 1011.52 1011.74 1012.00 1012.27 1012.74 1012.77 1012.88 1012.97 1013.53 1013.98 1014.32 1014.44 1014.85 1015.07 1015.02 1014.84 1014.77 1014.61 1014.39 1014.56 1014.67 1015.13 1015.18 1015.47 1015.73 1015.68 1016.13 1016.14
1006.27 1006.90 1007.41 1007.56 1007.87 1007.95 1006.82 1007.04 1005.94 1005.45 1005.91 1006.42 1007.89 1009.26 1009.95 1010.49 1011.04 1011.60 1011.98 1011.87 1012.31 1012.56 1012.77 1013.06 1013.12 1013.72 1013.74 1013.64 1013.54 1013.74 1014.28 1014.75 1015.03 1015.36 1015.53 1015.58 1015.66 1015.59 1015.59 1015.40 1015.34 1015.72 1016.06 1016.14 1016.23 1016.31 1016.68 1016.93 1017.10
1006.22 1006.62 1007.40 1007.62 1007.85 1007.86 1007.16 1006.88 1006.03 1005.47 1006.01 1007.86 1009.01 1010.11 1010.92 1011.48 1012.06 1012.42 1012.91 1013.07 1013.26 1013.50 1013.86 1014.09 1013.84 1014.55 1014.53 1014.71 1014.86 1014.84 1015.10 1015.19 1015.49 1015.86 1016.17 1016.39 1016.44 1016.61 1016.61 1016.47 1016.37 1016.33 1016.32 1016.62 1016.81 1017.24 1017.51 1017.62 1017.85
1005.43 1005.91 1006.11 1007.20 1007.94 1008.02 1007.45 1007.22 1007.43 1007.47 1008.25 1009.20 1010.30 1011.37 1012.62 1013.03 1013.17 1013.27 1013.31 1013.51 1013.90 1014.16 1014.59 1014.86 1014.80 1014.90 1015.28 1015.25 1015.35 1015.64 1015.75 1015.97 1016.38 1016.67 1016.87 1017.20 1017.11 1017.13 1017.26 1017.07 1017.22 1017.30 1017.29 1017.34 1017.64 1017.98 1018.17 1018.29 1018.55
1005.13 1004.78 1006.15 1007.05 1007.91 1008.46 1008.29 1008.00 1008.82 1009.58 1010.21 1010.56 1011.29 1012.25 1013.72 1014.75 1015.08 1014.46 1014.74 1014.35 1014.41 1014.81 1014.96 1015.10 1015.45 1015.52 1015.53 1015.91 1016.24 1016.43 1016.58 1016.65 1016.93 1017.03 1017.36 1017.84 1017.80 1017.69 1018.03 1018.01 1018.03 1018.04 1018.08 1018.14 1018.44 1018.71 1018.84 1018.90 1019.08
1004.96 1004.77 1005.57 1006.45 1007.54 1008.37 1008.92 1009.44 1009.74 1009.94 1010.60 1010.93 1011.61 1012.03 1011.79 1013.36 1014.65 1016.71 1014.49 1016.11 1014.64 1014.93 1015.21 1015.89 1016.11 1016.20 1016.49 1016.54 1016.73 1017.12 1017.58 1017.65 1017.71 1017.97 1017.99 1018.38 1018.47 1018.37 1018.53 1018.54 1018.72 1018.65 1018.73 1018.87 1019.00 1019.25 1019.42 1019.59 1019.79
1004.48 1004.87 1004.29 1006.02 1007.33 1007.98 1008.83 1010.10 1010.54 1011.29 1011.08 1010.67 1011.44 1010.94 1010.80 1012.12 1013.83 1015.04 1015.41 1016.46 1015.29 1015.67 1015.96 1016.69 1016.90 1016.94 1017.05 1017.13 1017.36 1017.66 1017.91 1018.14 1018.39 1018.62 1018.67 1019.03 1019.26 1019.09 1019.45 1019.09 1019.24 1019.23 1019.21 1019.46 1019.70 1019.96 1020.06 1020.28 1020.52
Thickness
5839 5841 5841 5828 5793 5787 5779 5799 5827 5817 5813 5828 5831 5818 5807 5810 5799 5771 5806 5803 5799 5795 5789 5786 5781 5780 5778 5776 5776 5774 5774 5773 5769 5768 5765 5763 5761 5758 5756 5755 5754 5752 5750 5747 5746 5744 5742 5740 5739
5842 5839 5831 5813 5779 5757 5776 5817 5814 5822 5830 5835 5831 5824 5813 5793 5809 5799 5798 5801 5801 5798 5790 5787 5783 5780 5780 5779 5777 5775 5773 5773 5770 5769 5766 5763 5761 5759 5757 5756 5754 5752 5750 5747 5746 5745 5743 5741 5738
5846 5845 5814 5800 5769 5763 5778 5815 5823 5831 5842 5840 5825 5832 5817 5794 5806 5806 5808 5803 5798 5796 5792 5788 5785 5782 5782 5779 5776 5775 5773 5773 5770 5768 5766 5764 5761 5759 5757 5755 5754 5751 5749 5747 5745 5745 5744 5743 5740
5840 5830 5817 5785 5775 5793 5807 5820 5836 5828 5834 5840 5835 5811 5823 5828 5817 5817 5808 5805 5800 5796 5794 5790 5787 5784 5782 5778 5776 5775 5773 5771 5770 5768 5766 5764 5762 5759 5758 5756 5753 5750 5748 5747 5745 5745 5745 5744 5742
5837 5820 5786 5781 5784 5799 5822 5835 5843 5833 5834 5833 5838 5810 5809 5819 5825 5817 5808 5804 5802 5797 5794 5790 5788 5784 5782 5780 5777 5775 5773 5771 5769 5768 5766 5764 5762 5759 5757 5755 5753 5750 5748 5747 5747 5746 5745 5744 5744
5811 5811 5777 5777 5793 5819 5824 5846 5847 5838 5835 5832 5825 5819 5806 5821 5820 5813 5810 5803 5804 5799 5795 5791 5789 5786 5782 5780 5777 5775 5774 5771 5769 5767 5766 5763 5762 5760 5757 5755 5752 5750 5748 5747 5747 5747 5746 5744 5743
5809 5795 5782 5787 5799 5799 5825 5854 5843 5841 5834 5830 5839 5811 5808 5813 5821 5818 5812 5807 5804 5799 5796 5793 5790 5786 5781 5779 5776 5774 5773 5772 5770 5769 5766 5764 5762 5759 5757 5755 5753 5750 5748 5747 5748 5747 5745 5743 5743
5815 5801 5790 5800 5798 5798 5833 5846 5856 5850 5838 5853 5846 5812 5805 5821 5823 5818 5812 5806 5802 5799 5798 5795 5791 5787 5783 5780 5778 5776 5774 5773 5771 5769 5767 5765 5763 5760 5758 5756 5754 5752 5749 5748 5748 5747 5744 5743 5742
5838 5786 5774 5793 5800 5812 5842 5834 5855 5864 5847 5847 5847 5840 5837 5836 5826 5815 5806 5800 5798 5798 5800 5797 5792 5788 5785 5783 5780 5778 5776 5774 5772 5770 5769 5767 5764 5760 5758 5756 5754 5752 5752 5749 5748 5748 5745 5744 5743
5808 5784 5793 5823 5825 5824 5840 5837 5845 5844 5838 5832 5836 5842 5841 5837 5827 5815 5807 5802 5800 5800 5800 5800 5796 5792 5789 5786 5783 5780 5777 5776 5774 5771 5770 5768 5765 5763 5761 5758 5755 5754 5752 5750 5748 5747 5745 5745 5744
5812 5799 5828 5836 5845 5845 5841 5841 5852 5841 5822 5838 5832 5836 5838 5834 5827 5821 5816 5813 5810 5810 5806 5804 5800 5797 5793 5790 5785 5782 5780 5777 5776 5774 5772 5770 5768 5766 5763 5761 5758 5756 5753 5752 5749 5748 5747 5744 5743
5809 5820 5836 5845 5860 5856 5847 5850 5843 5849 5844 5851 5848 5849 5841 5833 5827 5826 5822 5818 5812 5810 5812 5809 5804 5800 5796 5792 5789 5786 5783 5780 5779 5778 5775 5772 5770 5768 5767 5764 5760 5759 5757 5754 5752 5748 5747 5745 5743
5816 5822 5830 5842 5847 5855 5870 5847 5846 5844 5854 5854 5850 5846 5841 5838 5835 5835 5833 5830 5824 5815 5814 5813 5807 5803 5799 5795 5793 5791 5787 5784 5783 5782 5780 5777 5774 5772 5770 5767 5763 5761 5760 5758 5755 5751 5749 5748 5747
5825 5823 5830 5841 5845 5854 5855 5843 5849 5842 5854 5849 5846 5841 5841 5840 5839 5836 5830 5828 5825 5824 5820 5820 5811 5810 5804 5803 5800 5795 5790 5788 5786 5785 5785 5784 5781 5778 5774 5770 5767 5765 5764 5763 5759 5756 5753 5751 5749
5826 5814 5824 5837 5845 5851 5855 5821 5827 5847 5850 5844 5842 5842 5841 5840 5841 5838 5838 5834 5831 5828 5826 5822 5818 5814 5809 5807 5802 5797 5795 5792 5791 5790 5789 5786 5783 5780 5777 5775 5771 5769 5767 5763 5759 5758 5756 5751 5748
5808 5806 5789 5827 5838 5850 5848 5798 5831 5850 5845 5838 5840 5842 5841 5840 5842 5843 5843 5841 5835 5831 5827 5825 5822 5817 5812 5808 5808 5802 5800 5797 5795 5792 5791 5788 5785 5783 5779 5776 5774 5772 5770 5766 5762 5757 5752 5748 5748
5783 5772 5787 5803 5838 5837 5834 5815 5836 5847 5845 5839 5844 5844 5843 5840 5841 5844 5847 5844 5839 5835 5830 5824 5822 5817 5813 5809 5808 5805 5802 5798 5794 5793 5790 5786 5783 5781 5779 5777 5775 5772 5768 5764 5760 5757 5751 5747 5744
5766 5775 5788 5789 5825 5834 5822 5819 5838 5844 5844 5843 5844 5845 5843 5841 5841 5845 5846 5843 5841 5836 5832 5827 5821 5818 5813 5809 5803 5799 5797 5794 5792 5789 5787 5785 5784 5781 5776 5773 5771 5768 5764 5759 5756 5752 5749 5744 5741
5787 5780 5777 5798 5820 5819 5811 5818 5834 5839 5838 5838 5840 5842 5841 5842 5849 5846 5845 5843 5836 5830 5826 5822 5817 5814 5809 5802 5796 5791 5788 5788 5787 5787 5786 5785 5783 5781 5778 5774 5769 5763 5757 5755 5751 5747 5743 5737 5735
5778 5773 5783 5803 5818 5808 5813 5813 5833 5832 5836 5844 5841 5840 5842 5838 5840 5842 5840 5837 5832 5828 5824 5820 5817 5812 5808 5804 5799 5794 5789 5787 5786 5785 5783 5783 5782 5779 5775 5771 5766 5761 5756 5751 5745 5737 5732 5731 5727
5773 5766 5783 5785 5810 5816 5815 5804 5818 5834 5837 5839 5840 5846 5845 5841 5837 5837 5833 5832 5829 5826 5824 5822 5820 5816 5811 5805 5797 5790 5786 5782 5779 5778 5777 5776 5776 5775 5770 5766 5761 5757 5749 5745 5740 5735 5729 5722 5721
5752 5790 5797 5795 5787 5769 5809 5763 5806 5818 5823 5828 5827 5832 5837 5841 5837 5830 5825 5825 5829 5828 5826 5821 5815 5808 5804 5799 5792 5785 5777 5770 5771 5770 5769 5767 5769 5770 5766 5759 5754 5749 5744 5736 5731 5725 5719 5714 5707
5771 5799 5788 5793 5779 5783 5786 5765 5797 5809 5802 5806 5814 5821 5824 5825 5825 5816 5816 5821 5825 5824 5816 5811 5807 5802 5796 5791 5787 5780 5772 5769 5768 5763 5759 5756 5756 5754 5753 5747 5739 5736 5729 5724 5720 5715 5712 5705 5700
5794 5783 5781 5774 5763 5734 5771 5768 5771 5785 5803 5800 5811 5811 5812 5809 5810 5806 5806 5809 5809 5810 5806 5802 5797 5790 5788 5786 5781 5775 5768 5763 5757 5750 5744 5741 5739 5735 5731 5730 5725 5720 5714 5710 5704 5698 5695 5687 5683
5770 5753 5722 5728 5726 5721 5775 5759 5782 5811 5818 5818 5804 5798 5799 5799 5796 5793 5793 5796 5794 5793 5792 5789 5785 5777 5776 5774 5771 5767 5759 5751 5744 5737 5732 5727 5722 5718 5714 5711 5707 5700 5694 5690 5686 5682 5675 5670 5665
5751 5749 5722 5706 5717 5738 5780 5755 5781 5812 5819 5800 5792 5788 5789 5788 5786 5782 5780 5780 5779 5777 5774 5771 5770 5762 5763 5758 5753 5750 5744 5739 5733 5726 5719 5712 5707 5700 5696 5692 5688 5684 5680 5675 5670 5663 5658 5654 5648
5752 5736 5760 5740 5744 5735 5754 5776 5780 5793 5788 5780 5771 5772 5767 5768 5765 5763 5768 5770 5767 5763 5758 5756 5756 5753 5747 5744 5740 5734 5730 5724 5716 5710 5704 5696 5692 5687 5681 5677 5672 5667 5663 5658 5653 5646 5641 5636 5631
5750 5773 5731 5721 5707 5701 5725 5754 5735 5752 5755 5761 5759 5754 5745 5739 5738 5748 5750 5757 5757 5753 5751 5749 5743 5739 5737 5731 5725 5721 5716 5710 5703 5697 5690 5681 5676 5672 5665 5660 5655 5650 5646 5641 5635 5628 5624 5620 5615
5733 5733 5736 5735 5724 5710 5711 5727 5747 5749 5751 5752 5754 5752 5756 5731 5723 5715 5738 5734 5751 5748 5745 5737 5731 5727 5721 5719 5715 5708 5699 5693 5687 5680 5675 5668 5662 5658 5651 5646 5640 5635 5630 5624 5619 5613 5607 5602 5598
5743 5732 5742 5715 5712 5718 5723 5725 5739 5739 5746 5756 5751 5757 5760 5748 5723 5720 5725 5725 5740 5735 5732 5722 5717 5714 5710 5707 5701 5694 5688 5680 5673 5666 5660 5653 5645 5641 5633 5632 5625 5620 5615 5608 5601 5595 5591 5586 5581